COSMOS 249 DEB

Satellite information

Favourite Embed

Satellite Type and Status

DEBRISIN ORBIT

Key statistics

Satellite COSMOS 249 DEB at a glance.

Uptime

20652

Days in orbit

Revolutions

≈ 13.1

Per day

Orbit

LEO

Low Earth Orbit

Inclination

62.2

Latest

Satellite identification and parameters

Extended collection of information and parameters for COSMOS 249 DEB.

Object identification

Identified? True

Debris? True

Object name: COSMOS 249 DEB

International designator: 1968-091DG

Object number (NORAD): 18602

Object ID (CCSDS): 18602

Country: COMMONWEALTH OF INDEPENDENT STATES (CIS)

Current information (Y/N): Y

RCS size: SMALL

Orbital parameters

Period: 110.104 minutes

Inclination: 62.2285 deg

SMA: 7609.615 km

Apoapsis: 1732.441 km

Periapsis: 730.518 km

RAAN: 152.7404 deg

Eccentricy: 0.0658327

Argument of periapsis: 158.0694 deg

Mean anomaly: 354.0249 deg

Mean motion: 13.07852424 rev/day

Mean motion (dot): 0.0000218 rev/day2

B* drag term: 0.0023089 1/REarth

Two-line elements (TLE)

Creation date: May 2, 2025, 6:36 a.m.

Reference frame: TEME

Reference center: EARTH

Epoch: April 28, 2025, 12:49 p.m. UTC

TLE line 0: 0 COSMOS 249 DEB

TLE line 1: 1 18602U 68091DG 25118.53451181 .00002180 00000-0 23089-2 0 9991

TLE line 2: 2 18602 62.2285 152.7404 0658327 158.0694 354.0249 13.07852424591717

Live tracking on map

Real-time ground track for satellite COSMOS 249 DEB.

In-orbit conjunctions

A list of the most updated potential collisions computed for object COSMOS 249 DEB.

Target Orbit TCA Probability of collision Miss distance Type
COSMOS 2251 DEB LEO 2024-11-05 08:58:38 0.0002543187 44.0 (m) DEBRIS

Associated space launch

The I2P satellites were the first soviet coorbital ASAT system.

COSMOS 249 DEB was lifted into orbit during the mission ‘Tsiklon-2A | I2P 1’, on board a Tsiklon-2A space rocket.

The launch took place on Oct. 20, 1968, 4:02 a.m. from 90/20.

For more information about the launch, click the button.

Launch to space Tsiklon-2A | I2P 1
Tsiklon-2A | I2P 1

Agency: N/A

Status: Launch Successful

Launch date: Oct. 20, 1968, 4:02 a.m. UTC

Rocket: Tsiklon-2A

Launch pad: 90/20

Location: Baikonur Cosmodrome, Republic of Kazakhstan

...

Latest news about this satellite

There are no fresh news available about this satellite. Check back as we update our databases every day.


Newsletter sign-up

Weekly statistics, charts and insights to help you stay on top of the space industry.